Hourly Weather Abaújszántó

Today, 24 October, Saturday

Time Temperature Precipitation Wind Pressure Humidity
00:00 +10°C° 0 mm 0 mps 743 mmHg 91%
01:00 +10°C° 0 mm 0 mps 743 mmHg 91%
02:00 +10°C° 0 mm 0 mps 742 mmHg 91%
03:00 +10°C° 0 mm 0 mps 742 mmHg 90%
04:00 +10°C° 0 mm 0 mps 742 mmHg 90%
05:00 +10°C° 0 mm 0 mps 742 mmHg 91%
06:00 +10°C° 0 mm 0 mps 742 mmHg 91%
07:00 +10°C° 0 mm 0 mps 742 mmHg 92%
08:00 +11°C° 0 mm 0 mps 742 mmHg 88%
09:00 +12°C° 0 mm 0 mps 743 mmHg 84%
10:00 +13°C° 0 mm 0 mps 743 mmHg 80%
11:00 +14°C° 0 mm 0 mps 743 mmHg 78%
12:00 +14°C° 0 mm 0 mps 743 mmHg 77%
13:00 +16°C° 0 mm 1 mps 743 mmHg 75%
14:00 +15°C° 0 mm 1 mps 743 mmHg 78%
15:00 +15°C° 0 mm 1 mps 743 mmHg 81%
16:00 +14°C° 0 mm 1 mps 743 mmHg 84%
17:00 +14°C° 0 mm 1 mps 743 mmHg 85%
18:00 +14°C° 0 mm 1 mps 743 mmHg 86%
19:00 +14°C° 0 mm 2 mps 744 mmHg 87%
20:00 +13°C° 0 mm 2 mps 744 mmHg 87%
21:00 +13°C° 0 mm 2 mps 744 mmHg 87%
22:00 +13°C° 0 mm 2 mps 744 mmHg 87%
23:00 +13°C° 0 mm 2 mps 744 mmHg 87%

Tomorrow, 25 October, Sunday

Time Temperature Precipitation Wind Pressure Humidity
00:00 +13°C° 0 mm 2 mps 744 mmHg 87%
01:00 +13°C° 0 mm 2 mps 743 mmHg 87%
02:00 +13°C° 0 mm 2 mps 743 mmHg 87%
03:00 +13°C° 0 mm 2 mps 743 mmHg 87%
04:00 +13°C° 0 mm 2 mps 742 mmHg 88%
05:00 +12°C° 0.4 mm 2 mps 742 mmHg 89%
06:00 +12°C° 0.4 mm 2 mps 742 mmHg 90%
07:00 +12°C° 0.4 mm 2 mps 742 mmHg 91%
08:00 +12°C° 0.5 mm 2 mps 742 mmHg 91%
09:00 +12°C° 0.5 mm 2 mps 742 mmHg 92%
10:00 +12°C° 0.5 mm 2 mps 742 mmHg 92%
11:00 +13°C° 0.6 mm 2 mps 742 mmHg 92%
12:00 +13°C° 0.6 mm 1 mps 741 mmHg 93%
13:00 +13°C° 0.6 mm 1 mps 741 mmHg 93%
14:00 +13°C° 0.3 mm 1 mps 741 mmHg 94%
15:00 +12°C° 0.3 mm 1 mps 741 mmHg 95%
16:00 +12°C° 0.3 mm 1 mps 741 mmHg 96%
17:00 +12°C° 0.1 mm 1 mps 741 mmHg 96%
18:00 +12°C° 0.1 mm 1 mps 741 mmHg 96%
19:00 +11°C° 0.1 mm 0 mps 741 mmHg 96%
20:00 +11°C° 0 mm 0 mps 741 mmHg 97%
21:00 +11°C° 0 mm 0 mps 741 mmHg 97%
22:00 +11°C° 0 mm 0 mps 741 mmHg 97%
23:00 +11°C° 0.2 mm 0 mps 741 mmHg 97%

Day after tomorrow, 26 October, Monday

Time Temperature Precipitation Wind Pressure Humidity
00:00 +11°C° 0.2 mm 0 mps 741 mmHg 97%
01:00 +12°C° 0.2 mm 0 mps 741 mmHg 98%
02:00 +13°C° 0.1 mm 1 mps 741 mmHg 98%
03:00 +13°C° 0.1 mm 1 mps 741 mmHg 97%
04:00 +13°C° 0.1 mm 1 mps 741 mmHg 97%
05:00 +13°C° 0 mm 2 mps 741 mmHg 97%
06:00 +13°C° 0 mm 2 mps 741 mmHg 96%
07:00 +13°C° 0 mm 2 mps 741 mmHg 95%
08:00 +13°C° 0 mm 2 mps 741 mmHg 94%
09:00 +13°C° 0 mm 3 mps 741 mmHg 92%
10:00 +13°C° 0 mm 3 mps 741 mmHg 90%
11:00 +14°C° 0 mm 3 mps 740 mmHg 86%
12:00 +15°C° 0 mm 4 mps 740 mmHg 82%
13:00 +15°C° 0 mm 4 mps 740 mmHg 77%
14:00 +16°C° 0 mm 3 mps 740 mmHg 79%
15:00 +16°C° 0 mm 3 mps 740 mmHg 82%
16:00 +15°C° 0 mm 2 mps 740 mmHg 84%
17:00 +15°C° 0.1 mm 2 mps 740 mmHg 85%
18:00 +14°C° 0.1 mm 3 mps 740 mmHg 86%
19:00 +13°C° 0.1 mm 3 mps 741 mmHg 88%
20:00 +13°C° 0 mm 3 mps 741 mmHg 88%
21:00 +14°C° 0 mm 2 mps 741 mmHg 89%
22:00 +14°C° 0 mm 2 mps 741 mmHg 89%
23:00 +13°C° 0 mm 2 mps 741 mmHg 90%

, 27 October, Tuesday

Time Temperature Precipitation Wind Pressure Humidity
00:00 +13°C° 0 mm 2 mps 741 mmHg 90%
01:00 +13°C° 0 mm 2 mps 741 mmHg 90%
02:00 +12°C° 0 mm 1 mps 741 mmHg 91%
03:00 +12°C° 0 mm 1 mps 741 mmHg 92%
04:00 +12°C° 0 mm 1 mps 741 mmHg 93%
05:00 +11°C° 0 mm 1 mps 741 mmHg 93%
06:00 +11°C° 0 mm 1 mps 741 mmHg 93%
07:00 +11°C° 0 mm 1 mps 741 mmHg 93%
08:00 +13°C° 0 mm 1 mps 741 mmHg 87%
09:00 +14°C° 0 mm 1 mps 741 mmHg 81%
10:00 +16°C° 0 mm 1 mps 741 mmHg 74%
11:00 +16°C° 0 mm 1 mps 741 mmHg 71%
12:00 +18°C° 0 mm 1 mps 741 mmHg 67%
13:00 +19°C° 0 mm 1 mps 740 mmHg 63%
14:00 +18°C° 0 mm 1 mps 740 mmHg 67%
15:00 +18°C° 0 mm 1 mps 740 mmHg 71%
16:00 +16°C° 0 mm 1 mps 740 mmHg 75%
17:00 +15°C° 0 mm 1 mps 740 mmHg 77%
18:00 +14°C° 0 mm 1 mps 741 mmHg 80%
19:00 +14°C° 0 mm 1 mps 741 mmHg 82%
20:00 +13°C° 0 mm 1 mps 741 mmHg 83%
21:00 +13°C° 0 mm 1 mps 741 mmHg 84%
22:00 +13°C° 0 mm 1 mps 741 mmHg 85%
23:00 +13°C° 0 mm 1 mps 741 mmHg 85%

27 October, Tuesday

Time Temperature Precipitation Wind Pressure Humidity
00:00 +13°C° 0 mm 2 mps 741 mmHg 90%
01:00 +13°C° 0 mm 2 mps 741 mmHg 90%
02:00 +12°C° 0 mm 1 mps 741 mmHg 91%
03:00 +12°C° 0 mm 1 mps 741 mmHg 92%
04:00 +12°C° 0 mm 1 mps 741 mmHg 93%
05:00 +11°C° 0 mm 1 mps 741 mmHg 93%
06:00 +11°C° 0 mm 1 mps 741 mmHg 93%
07:00 +11°C° 0 mm 1 mps 741 mmHg 93%
08:00 +13°C° 0 mm 1 mps 741 mmHg 87%
09:00 +14°C° 0 mm 1 mps 741 mmHg 81%
10:00 +16°C° 0 mm 1 mps 741 mmHg 74%
11:00 +16°C° 0 mm 1 mps 741 mmHg 71%
12:00 +18°C° 0 mm 1 mps 741 mmHg 67%
13:00 +19°C° 0 mm 1 mps 740 mmHg 63%
14:00 +18°C° 0 mm 1 mps 740 mmHg 67%
15:00 +18°C° 0 mm 1 mps 740 mmHg 71%
16:00 +16°C° 0 mm 1 mps 740 mmHg 75%
17:00 +15°C° 0 mm 1 mps 740 mmHg 77%
18:00 +14°C° 0 mm 1 mps 741 mmHg 80%
19:00 +14°C° 0 mm 1 mps 741 mmHg 82%
20:00 +13°C° 0 mm 1 mps 741 mmHg 83%
21:00 +13°C° 0 mm 1 mps 741 mmHg 84%
22:00 +13°C° 0 mm 1 mps 741 mmHg 85%
23:00 +13°C° 0 mm 1 mps 741 mmHg 85%

28 October, Wednesday

Time Temperature Precipitation Wind Pressure Humidity
00:00 +12°C° 0 mm 1 mps 741 mmHg 86%
01:00 +12°C° 0 mm 1 mps 741 mmHg 86%
02:00 +12°C° 0 mm 1 mps 741 mmHg 87%
03:00 +12°C° 0 mm 1 mps 742 mmHg 87%
04:00 +12°C° 0 mm 1 mps 742 mmHg 88%
05:00 +12°C° 0 mm 1 mps 742 mmHg 88%
06:00 +12°C° 0 mm 1 mps 742 mmHg 88%
07:00 +11°C° 0 mm 0 mps 742 mmHg 88%
08:00 +12°C° 0 mm 0 mps 742 mmHg 83%
09:00 +13°C° 0 mm 0 mps 742 mmHg 78%
10:00 +15°C° 0 mm 0 mps 743 mmHg 72%
11:00 +16°C° 0 mm 1 mps 742 mmHg 70%
12:00 +18°C° 0 mm 1 mps 742 mmHg 67%
13:00 +19°C° 0 mm 1 mps 742 mmHg 64%
14:00 +18°C° 0 mm 1 mps 742 mmHg 68%
15:00 +15°C° 0 mm 0 mps 742 mmHg 72%
16:00 +14°C° 0 mm 0 mps 742 mmHg 77%
17:00 +13°C° 0 mm 0 mps 742 mmHg 79%
18:00 +13°C° 0 mm 0 mps 743 mmHg 82%
19:00 +12°C° 0 mm 0 mps 743 mmHg 84%
20:00 +12°C° 0 mm 0 mps 743 mmHg 85%
21:00 +12°C° 0 mm 0 mps 743 mmHg 86%
22:00 +11°C° 0 mm 0 mps 744 mmHg 87%
23:00 +11°C° 0 mm 0 mps 743 mmHg 88%

29 October, Thursday

Time Temperature Precipitation Wind Pressure Humidity
00:00 +11°C° 0 mm 0 mps 743 mmHg 89%
01:00 +11°C° 0 mm 0 mps 743 mmHg 89%
02:00 +10°C° 0 mm 0 mps 744 mmHg 90%
03:00 +10°C° 0 mm 0 mps 744 mmHg 90%
04:00 +10°C° 0 mm 0 mps 744 mmHg 90%
05:00 +10°C° 0 mm 0 mps 744 mmHg 91%
06:00 +10°C° 0 mm 0 mps 744 mmHg 91%
07:00 +10°C° 0 mm 0 mps 745 mmHg 92%
08:00 +11°C° 0 mm 0 mps 745 mmHg 87%
09:00 +12°C° 0 mm 0 mps 745 mmHg 82%
10:00 +14°C° 0 mm 0 mps 745 mmHg 77%
11:00 +14°C° 0 mm 0 mps 745 mmHg 74%
12:00 +16°C° 0 mm 1 mps 745 mmHg 71%
13:00 +18°C° 0 mm 1 mps 745 mmHg 69%
14:00 +16°C° 0 mm 1 mps 745 mmHg 72%
15:00 +15°C° 0 mm 1 mps 746 mmHg 76%
16:00 +15°C° 0 mm 1 mps 746 mmHg 80%
17:00 +14°C° 0 mm 1 mps 746 mmHg 82%
18:00 +13°C° 0 mm 1 mps 746 mmHg 84%
19:00 +13°C° 0 mm 1 mps 747 mmHg 86%
20:00 +11°C° 0 mm 0 mps 747 mmHg 87%
21:00 +11°C° 0 mm 0 mps 748 mmHg 87%
22:00 +11°C° 0 mm 0 mps 748 mmHg 87%
23:00 +10°C° 0 mm 0 mps 748 mmHg 88%
Show more